Regional Weather Roundup
Issued by NWS

Home | Current Version | Previous Version | Graphics & Text | Print | Product List | Glossary On
Versions: 1 2 3 4 5 6 7 8 9 10 11 12 13 14 15 16 17 18 19 20 21 22 23 24 25 26 27 28
000
ASUS45 KCYS 251510
RWRWY

WYOMING REGIONAL WEATHER ROUNDUP
NATIONAL WEATHER SERVICE CHEYENNE WY
900 AM MDT THU AUG 25 2016

NOTE:  "FAIR" INDICATES FEW OR NO CLOUDS BELOW 12,000 FEET
WITH NO SIGNIFICANT WEATHER AND/OR OBSTRUCTIONS TO VISIBILITY.

WYZ001-251600-
YELLOWSTONE NATIONAL PARK

CITY           SKY/WX    TMP DP  RH WIND       PRES   REMARKS
LK YELLOWSTONE   N/A     42  36  79 VRB3      30.36F
W YELLOWSTONE  NOT AVBL

$$
WYZ002>013-054>058-071-098>099-251600-
NORTHERN WYOMING

CITY           SKY/WX    TMP DP  RH WIND       PRES   REMARKS
JACKSON        SUNNY     45  36  70 CALM      30.32
CODY           FAIR      52  39  62 CALM      30.31F
GREYBULL       PTSUNNY   54  38  54 CALM      30.29S
WORLAND        PTSUNNY   55  43  63 SW3       30.30S
SHERIDAN       FAIR      55  41  59 CALM      30.32S
BUFFALO        CLOUDY    52  38  58 N3        30.34S
GILLETTE       PTSUNNY   52  41  66 N5        30.32R
HULETT         FAIR      52  43  71 N3        30.33S
NEWCASTLE      FAIR      52  41  66 NW6       30.32R

$$
WYZ014>020-022>026-101>103-251600-
CENTRAL WYOMING

CITY           SKY/WX    TMP DP  RH WIND       PRES   REMARKS
BIG PINEY      PTSUNNY   48  36  63 SW7       30.36R
PINEDALE       FAIR      48  34  57 W7        30.36R
DUBOIS         CLOUDY    45  37  76 E8        30.35S
LANDER         CLOUDY    52  43  71 E3        30.32F
RIVERTON       FAIR      50  47  89 E5        30.34S
CASPER         CLOUDY    50  46  86 NE9       30.34F
DOUGLAS        CLOUDY    49  46  90 SE5       30.35S

$$
WYZ021-027>030-104>119-251600-
SOUTHERN WYOMING

CITY           SKY/WX    TMP DP  RH WIND       PRES   REMARKS
EVANSTON       FAIR      45  33  63 N8        30.31R
FORT BRIDGER   FAIR      49  40  69 E9        30.35S
ROCK SPRINGS   NOT AVBL
DIXON          FAIR      50  37  61 CALM      30.33R
RAWLINS        CLOUDY    51  41  68 NE15      30.33R
SARATOGA       FAIR      46  43  87 SE5       30.33R
LARAMIE        PTSUNNY   48  43  82 E6        30.34R
CHEYENNE       PTSUNNY   49  43  80 N13       30.35R
TORRINGTON     CLOUDY    56  43  61 NE10      30.32S
PINE BLUFFS    PTSUNNY   54  46  76 N13       30.33R

$$




USA.gov is the U.S. government's official web portal to all federal, state and local government web resources and services.